TimeEDT,TemperatureF,Dew PointF,Humidity,Sea Level PressureIn,VisibilityMPH,Wind Direction,Wind SpeedMPH,Gust SpeedMPH,PrecipitationIn,Events,Conditions,WindDirDegrees,DateUTC
12:52 AM,59.0,55.9,90,29.83,10.0,Calm,Calm,-,0.00,Rain,Light Rain,0,2013-08-04 04:52:00
1:52 AM,60.1,55.0,83,29.80,10.0,NNW,3.5,-,0.00,,Scattered Clouds,340,2013-08-04 05:52:00
2:52 AM,55.9,53.1,90,29.81,10.0,East,3.5,-,N/A,,Partly Cloudy,90,2013-08-04 06:52:00
3:52 AM,53.1,52.0,96,29.81,10.0,Calm,Calm,-,N/A,,Partly Cloudy,0,2013-08-04 07:52:00
4:52 AM,55.0,53.1,93,29.81,10.0,SW,3.5,-,N/A,,Clear,230,2013-08-04 08:52:00
5:52 AM,52.0,50.0,93,29.82,7.0,Calm,Calm,-,N/A,,Clear,0,2013-08-04 09:52:00
6:10 AM,51.8,50.0,94,29.83,7.0,SE,3.5,-,N/A,,Scattered Clouds,130,2013-08-04 10:10:00
6:23 AM,53.6,51.8,94,29.82,10.0,Calm,Calm,-,N/A,,Mostly Cloudy,0,2013-08-04 10:23:00
6:30 AM,53.6,51.8,94,29.82,10.0,South,5.8,-,N/A,,Scattered Clouds,190,2013-08-04 10:30:00
6:52 AM,55.0,54.0,96,29.83,10.0,Variable,3.5,-,N/A,,Clear,0,2013-08-04 10:52:00
7:18 AM,57.2,55.4,94,29.84,10.0,Calm,Calm,-,N/A,,Mostly Cloudy,0,2013-08-04 11:18:00
7:52 AM,60.1,55.9,86,29.84,10.0,Calm,Calm,-,N/A,,Overcast,0,2013-08-04 11:52:00
8:49 AM,62.6,55.4,77,29.83,10.0,Variable,3.5,-,N/A,,Scattered Clouds,0,2013-08-04 12:49:00
8:52 AM,63.0,55.0,75,29.83,10.0,Variable,5.8,-,N/A,,Scattered Clouds,0,2013-08-04 12:52:00
9:52 AM,68.0,55.9,65,29.82,10.0,Variable,4.6,-,N/A,,Scattered Clouds,0,2013-08-04 13:52:00
10:52 AM,69.1,55.0,61,29.82,10.0,Variable,5.8,-,N/A,,Partly Cloudy,0,2013-08-04 14:52:00
11:52 AM,72.0,53.1,51,29.80,10.0,Variable,5.8,-,N/A,,Mostly Cloudy,0,2013-08-04 15:52:00
12:52 PM,70.0,55.9,61,29.80,10.0,SW,6.9,-,N/A,,Mostly Cloudy,230,2013-08-04 16:52:00
1:04 PM,71.6,55.4,57,29.80,10.0,WSW,8.1,-,N/A,Thunderstorm,Mostly Cloudy,240,2013-08-04 17:04:00
1:19 PM,60.8,53.6,77,29.83,7.0,West,10.4,29.9,0.02,Rain,Light Rain,280,2013-08-04 17:19:00
1:49 PM,59.0,55.4,88,29.84,6.0,NNW,3.5,-,0.06,Rain-Thunderstorm,Light Rain,340,2013-08-04 17:49:00
1:52 PM,59.0,55.9,90,29.84,7.0,North,3.5,-,0.06,Rain-Thunderstorm,Light Rain,10,2013-08-04 17:52:00
2:04 PM,59.0,55.4,88,29.84,10.0,NNE,3.5,-,0.00,Rain,Light Rain,20,2013-08-04 18:04:00
2:52 PM,62.1,55.0,78,29.85,10.0,Calm,Calm,-,0.00,,Mostly Cloudy,0,2013-08-04 18:52:00
3:22 PM,60.8,55.4,82,29.83,10.0,SE,4.6,-,N/A,,Mostly Cloudy,130,2013-08-04 19:22:00
3:35 PM,62.6,57.2,82,29.82,10.0,South,3.5,-,N/A,,Scattered Clouds,180,2013-08-04 19:35:00
3:52 PM,62.1,55.9,80,29.83,10.0,Calm,Calm,-,N/A,,Mostly Cloudy,0,2013-08-04 19:52:00
4:52 PM,66.9,57.9,73,29.81,10.0,Variable,3.5,-,N/A,,Mostly Cloudy,0,2013-08-04 20:52:00
5:52 PM,66.9,53.1,61,29.83,10.0,Variable,4.6,-,N/A,,Partly Cloudy,0,2013-08-04 21:52:00
6:52 PM,66.0,51.1,59,29.84,10.0,Variable,3.5,-,N/A,,Mostly Cloudy,0,2013-08-04 22:52:00
7:52 PM,60.1,52.0,75,29.87,10.0,WNW,5.8,-,N/A,,Clear,290,2013-08-04 23:52:00
8:52 PM,55.9,51.1,84,29.88,10.0,Calm,Calm,-,N/A,,Clear,0,2013-08-05 00:52:00
9:52 PM,55.0,52.0,89,29.88,10.0,Calm,Calm,-,N/A,,Partly Cloudy,0,2013-08-05 01:52:00
10:52 PM,53.1,51.1,93,29.89,10.0,Variable,3.5,-,N/A,,Mostly Cloudy,0,2013-08-05 02:52:00
11:52 PM,51.1,50.0,96,29.89,10.0,Calm,Calm,-,N/A,,Scattered Clouds,0,2013-08-05 03:52:00